Skip Page Navigation
NASA JPL Caltech
NASA Logo - Jet Propulsion Laboratory + View the NASA Portal
+ Center for Near-Earth Object Studies
JPL Home Earth Solar System Stars & Galaxies Technology
JPL Solar System Dynamics
BODIES ORBITS EPHEMERIDES TOOLS PHYSICAL DATA DISCOVERY FAQ SITE MAP
IMPORTANT: The SSD Announcement email list is now available. Major changes are coming in the near future, including possible hostname and/or URL changes. To be notified of such changes, subscribe to this email list.

Please visit this page for more details.


JPL Small-Body Database Browser
Search: [ help ]  
423255 (2004 TR206)
Classification: Main-belt Asteroid          SPK-ID: 2423255
Ephemeris | Orbit Diagram | Orbital Elements | Mission Design | Physical Parameters | Discovery Circumstances ]

[ show orbit diagram ]
Orbital Elements at Epoch 2459000.5 (2020-May-31.0) TDB
Reference: JPL 15 (heliocentric ecliptic J2000)
 Element Value Uncertainty (1-sigma)   Units 
e .2026355877415644 6.1553e-08  
a 2.69181852107041 2.603e-08 au
q 2.146360292959679 1.6729e-07 au
i 16.57103312902938 8.4137e-06 deg
node 45.53215833831342 2.0797e-05 deg
peri 281.6601947110304 2.9793e-05 deg
M 248.7831800756466 2.0245e-05 deg
tp 2459498.850690657087
(2021-Oct-11.35069066)
9.1709e-05 TDB
period 1613.121547249585
4.42
2.3399e-05
6.406e-08
d
yr
n .2231697918943613 3.2371e-09 deg/d
Q 3.237276749181142 3.1305e-08 au
  Orbit Determination Parameters
   # obs. used (total)      181  
   data-arc span      8871 days (24.29 yr)  
   first obs. used      1995-10-21  
   last obs. used      2020-02-03  
   planetary ephem.      DE431  
   SB-pert. ephem.      SB431-N16  
   condition code      0  
   norm. resid. RMS      .60097  
   source      ORB  
   producer      Otto Matic  
   solution date      2020-Feb-26 08:04:23  

Additional Information
 Earth MOID = 1.20806 au 
 Jupiter MOID = 2.36798 au 
 T_jup = 3.283 
[ show covariance matrix ]

Ephemeris | Orbit Diagram | Orbital Elements | Mission Design | Physical Parameters | Discovery Circumstances ]

Physical Parameter Table
Parameter Symbol Value Units Sigma Reference Notes
absolute magnitude H 16.4   n/a MPO437658  

423255 (2004 TR206)          Discovered 2004-Oct-07 by Spacewatch at Kitt Peak
Reference: Last Updated: 2015-02-04

Alternate Designations
 2004 TR206 = 1995 UZ64 
Ephemeris | Orbit Diagram | Orbital Elements | Mission Design | Physical Parameters | Discovery Circumstances ]
ABOUT SSD CREDITS/AWARDS PRIVACY/COPYRIGHT GLOSSARY LINKS
FirstGov 2020-Feb-28 07:02 UT
(server date/time)  
NASA Home Page
Site Manager:   Ryan S. Park
Webmaster  Alan B. Chamberlin